www.pogodaiklimat.ru

Погода и климат >> Архив погоды >> Италия >> Катандзаро


ПОГОДА в Катандзаро

  • Прогноз погоды в Катандзаро
  • Монитор погоды в Катандзаро

АРХИВ ПОГОДЫ в Катандзаро

Время (UTC), дата Ветер
(напр.,м/с)
 
Видим.   Явления Облачность Т
(С)
Тd
(С)
f
(%)
Тe
(С)
Тes
(С)
Комфортность P
(гПа)
Po
(гПа)
Тmin
(С)
Tmax
(С)
R
(мм)
R24
(мм)
S
(см)
13 14.08 З 7 н/о н/о +26.4 +15.1 50 +29 +29 жарко 1010.2 972.6
14 14.08 СЗ 6 н/о н/о +26.5 +13.5 45 +29 +29 жарко 1010.5 972.8
15 14.08 З 5 н/о н/о +26.9 +12.8 42 +29 +29 жарко 1010.1 972.5
16 14.08 З 5 н/о н/о +25.6 +14.6 51 +28 +28 жарко 1010.1 972.3
17 14.08 З 9 н/о н/о +25.3 +15.0 53 +28 +28 жарко 1010.0 972.2
18 14.08 З 4 н/о н/о +24.1 +15.8 60 +27 +27 жарко 1010.7 972.7 +28.1
19 14.08 З 4 н/о н/о +23.5 +14.7 58 +26 +26 жарко 1011.1 973.0
20 14.08 З 4 н/о н/о +22.7 +15.2 63 +27 +27 душно 1011.9 973.7
21 14.08 З 6 н/о н/о +23.0 +14.2 58 +27 +27 душно 1011.9 973.7
22 14.08 СЗ 6 н/о н/о +22.1 +14.1 60 +25 +25 комфорт 1012.1 973.8
23 14.08 СЗ 5 н/о н/о +21.9 +12.9 57 +25 +25 комфорт 1012.3 974.0
00 15.08 СЗ 7 н/о н/о +21.7 +13.0 58 +24 +24 комфорт 1012.3 973.9
01 15.08 СЗ 5 н/о н/о +21.6 +14.9 66 +25 +25 комфорт 1012.2 973.8
02 15.08 СЗ 4 н/о н/о +21.5 +13.1 59 +24 +24 комфорт 1011.9 973.5
03 15.08 СЗ 5 н/о н/о +21.7 +12.8 57 +24 +24 комфорт 1011.8 973.5
04 15.08 СЗ 6 н/о н/о +21.1 +13.7 63 +24 +24 комфорт 1012.2 973.8
05 15.08 СЗ 6 н/о н/о +21.2 +14.0 63 +24 +24 комфорт 1012.4 974.0
06 15.08 СЗ 4 н/о н/о +22.0 +14.8 64 +25 +25 комфорт 1012.9 974.5 +21.0 110
07 15.08 СЗ 5 н/о н/о +22.3 +15.3 65 +26 +26 жарко 1013.2 974.9
08 15.08 З 5 н/о н/о +23.0 +14.7 60 +27 +27 душно 1013.3 975.0
09 15.08 З 4 н/о н/о +24.4 +14.7 55 +27 +27 жарко 1013.0 975.0
10 15.08 З 5 н/о н/о +25.1 +14.8 53 +28 +28 жарко 1012.6 974.7
11 15.08 З 7 н/о н/о +25.5 +13.9 49 +28 +28 жарко 1012.5 974.6
12 15.08 З 7 н/о н/о +25.6 +13.7 48 +28 +28 жарко 1012.1 974.2
13 15.08 З 7 н/о н/о +25.6 +14.6 51 +28 +28 жарко 1011.8 973.9
14 15.08 З 8 н/о н/о +25.7 +14.4 50 +28 +28 жарко 1011.6 973.8
15 15.08 З 9 н/о н/о +25.2 +15.4 55 +28 +28 жарко 1011.6 973.7
16 15.08 З 3 н/о н/о +24.9 +15.7 57 +28 +28 жарко 1012.2 974.2
17 15.08 З 5 н/о н/о +24.3 +16.7 63 +28 +28 душно 1012.5 974.4
18 15.08 СЗ 5 н/о н/о +23.3 +17.0 68 +28 +28 душно 1013.2 975.0 +26.4
19 15.08 СЗ 4 н/о н/о +23.0 +15.2 61 +27 +27 душно 1014.0 975.7
20 15.08 СЗ 4 н/о н/о +22.9 +14.4 59 +27 +27 душно 1014.6 976.3
21 15.08 СЗ 4 н/о н/о +22.9 +13.8 56 +26 +26 жарко 1014.9 976.6
22 15.08 СЗ 2 н/о н/о +22.7 +14.5 60 +26 +26 жарко 1014.7 976.4
23 15.08 СЗ 1 н/о н/о +22.3 +14.6 62 +26 +26 жарко 1014.7 976.3
00 16.08 СЗ 3 н/о н/о +21.9 +14.5 63 +25 +25 комфорт 1014.4 976.0
01 16.08 З 3 н/о н/о +21.6 +13.7 61 +24 +24 комфорт 1013.9 975.5
02 16.08 СЗ 2 н/о н/о +21.3 +14.4 65 +24 +24 комфорт 1013.8 975.3
03 16.08 С 2 н/о н/о +21.5 +14.3 64 +24 +24 комфорт 1013.7 975.3
04 16.08 С 1 н/о н/о +21.5 +13.8 62 +24 +24 комфорт 1014.1 975.6
05 16.08 СЗ 3 н/о н/о +21.7 +15.2 67 +25 +25 комфорт 1014.1 975.7
06 16.08 СЗ 4 н/о н/о +21.7 +15.0 66 +25 +25 комфорт 1014.3 975.9 +21.2 108
07 16.08 З 4 н/о н/о +22.5 +15.8 66 +27 +27 душно 1014.6 976.2
08 16.08 З 6 н/о н/о +23.9 +14.5 56 +27 +27 жарко 1014.4 976.2
09 16.08 З 5 н/о н/о +25.0 +13.5 49 +27 +27 жарко 1014.3 976.3
10 16.08 З 8 н/о н/о +25.4 +13.2 47 +27 +27 жарко 1014.2 976.2
11 16.08 З 9 н/о н/о +25.4 +13.8 49 +28 +28 жарко 1013.8 975.8
12 16.08 З 7 н/о н/о +25.8 +14.2 49 +28 +28 жарко 1013.6 975.7
13 16.08 З 7 н/о н/о +25.7 +14.7 51 +28 +28 жарко 1013.5 975.6
14 16.08 З 9 н/о н/о +25.7 +14.4 50 +28 +28 жарко 1013.3 975.4
15 16.08 ЮВ 9 н/о н/о +25.4 +13.8 49 +28 +28 жарко 1013.0 975.0
16 16.08 З 8 н/о н/о +24.6 +14.6 54 +27 +27 жарко 1013.3 975.2
17 16.08 З 3 н/о н/о +24.2 +14.8 56 +27 +27 жарко 1013.5 975.4
18 16.08 З 5 н/о н/о +23.2 +15.7 63 +28 +28 душно 1014.6 976.3 +26.2
19 16.08 СЗ 2 н/о н/о +22.4 +15.7 66 +26 +26 жарко 1015.2 976.8
20 16.08 СЗ 4 н/о н/о +22.0 +15.3 66 +26 +26 душно 1015.8 977.3
21 16.08 СЗ 2 н/о н/о +22.2 +14.0 60 +25 +25 комфорт 1015.9 977.4
22 16.08 СЗ 3 н/о н/о +21.9 +13.2 58 +25 +25 комфорт 1016.2 977.7
23 16.08 СЗ 3 н/о н/о +21.5 +12.8 58 +24 +24 комфорт 1016.2 977.7
00 17.08 З 2 н/о н/о +21.4 +12.2 56 +24 +24 комфорт 1015.6 977.1
01 17.08 СЗ 5 н/о н/о +20.5 +12.2 59 +22 +22 комфорт 1015.5 976.9
02 17.08 СЗ 3 н/о н/о +20.5 +11.6 57 +23 +23 комфорт 1015.7 977.0
03 17.08 СЗ 2 н/о н/о +20.8 +9.9 50 +23 +23 комфорт 1015.6 977.0
04 17.08 СЗ 2 н/о н/о +21.3 +10.1 49 +23 +23 комфорт 1015.7 977.1
05 17.08 СЗ 1 н/о н/о +21.3 +10.4 50 +23 +23 комфорт 1015.9 977.4
06 17.08 СЗ 4 н/о н/о +21.4 +11.4 53 +23 +23 комфорт 1016.2 977.6 +20.4 106
07 17.08 СЗ 3 н/о н/о +22.3 +13.5 57 +25 +25 комфорт 1016.2 977.8
08 17.08 З 3 н/о н/о +23.5 +14.1 56 +26 +26 жарко 1016.3 978.0
09 17.08 З 6 н/о н/о +25.0 +14.1 51 +27 +27 жарко 1016.3 978.2
10 17.08 З 3 н/о н/о +25.8 +14.2 49 +28 +28 жарко 1016.3 978.3
11 17.08 З 3 н/о н/о +26.3 +12.3 42 +28 +28 жарко 1016.1 978.1
12 17.08 З 3 н/о н/о +27.0 +12.2 40 +28 +28 жарко 1015.7 977.8
13 17.08 З 7 н/о н/о +26.8 +13.5 44 +29 +29 жарко 1015.6 977.7
14 17.08 СЗ 3 н/о н/о +26.2 +12.9 44 +28 +28 жарко 1015.4 977.5
15 17.08 З 2 н/о н/о +25.8 +13.2 46 +28 +28 жарко 1015.4 977.4
16 17.08 З 5 н/о н/о +25.3 +12.8 46 +27 +27 жарко 1015.8 977.7
17 17.08 З 4 н/о н/о +24.5 +12.7 48 +26 +26 жарко 1015.6 977.4
18 17.08 З 5 н/о н/о +23.1 +14.6 59 +27 +27 душно 1015.9 977.6 +27.6
19 17.08 З 3 н/о н/о +22.2 +15.7 67 +26 +26 душно 1016.2 977.7
20 17.08 СЗ 6 н/о н/о +21.8 +16.2 70 +26 +26 душно 1016.3 977.8
21 17.08 З 3 н/о н/о +21.7 +15.0 66 +25 +25 комфорт 1016.5 978.0
22 17.08 СЗ 3 н/о н/о +22.1 +11.1 50 +24 +24 комфорт 1016.5 978.0
23 17.08 СЗ 5 н/о н/о +21.7 +11.7 53 +24 +24 комфорт 1016.3 977.8
00 18.08 СЗ 4 н/о н/о +21.2 +12.6 58 +23 +23 комфорт 1016.4 977.8
01 18.08 СЗ 5 н/о н/о +20.8 +15.3 71 +24 +24 комфорт 1016.4 977.8
02 18.08 СЗ 5 н/о н/о +20.7 +15.6 73 +24 +24 комфорт 1016.3 977.6
03 18.08 СЗ 5 н/о н/о +20.5 +15.4 73 +23 +23 комфорт 1016.1 977.4
04 18.08 СЗ 3 н/о н/о +20.5 +13.6 65 +23 +23 комфорт 1016.3 977.6
05 18.08 СЗ 3 н/о н/о +20.7 +12.8 61 +23 +23 комфорт 1016.5 977.9
06 18.08 З 1 н/о н/о +21.7 +12.5 56 +24 +24 комфорт 1016.5 978.0 +20.4 1
07 18.08 З 2 н/о н/о +22.4 +14.2 60 +26 +26 жарко 1016.6 978.2
08 18.08 штиль 0 н/о н/о +23.8 +13.9 54 +26 +26 жарко 1016.7 978.4
09 18.08 З 1 н/о н/о +25.3 +11.1 41 +27 +27 жарко 1016.4 978.4
10 18.08 З 2 н/о н/о +26.6 +11.9 40 +28 +28 жарко 1016.2 978.2
11 18.08 З 4 н/о н/о +27.2 +13.1 42 +29 +29 жарко 1015.9 978.1
12 18.08 ЮВ 4 н/о н/о +26.7 +13.0 43 +28 +28 жарко 1016.2 978.3
13 18.08 Ю 3 н/о н/о +25.8 +12.6 44 +28 +28 жарко 1016.2 978.2
14 18.08 Ю 4 н/о н/о +25.6 +12.8 45 +27 +27 жарко 1016.0 978.0
15 18.08 ЮВ 4 н/о н/о +25.2 +14.0 50 +28 +28 жарко 1016.2 978.1
16 18.08 В 3 н/о н/о +25.1 +14.2 51 +28 +28 жарко 1016.0 977.9
17 18.08 Ю 1 н/о н/о +24.2 +14.2 54 +27 +27 жарко 1015.9 977.7
18 18.08 Ю 1 н/о н/о +23.7 +14.3 56 +26 +26 жарко 1016.0 977.7 +27.9
19 18.08 штиль 0 н/о н/о +23.3 +14.2 57 +27 +27 душно 1016.1 977.8
20 18.08 СВ 1 н/о н/о +22.6 +14.1 59 +26 +26 жарко 1016.5 978.1
21 18.08 С 1 н/о н/о +22.9 +13.8 56 +26 +26 жарко 1016.4 978.0
22 18.08 С 1 н/о н/о +23.0 +13.7 56 +26 +26 жарко 1016.5 978.1
23 18.08 С 1 н/о н/о +22.9 +12.2 51 +26 +26 жарко 1016.5 978.1
00 19.08 штиль 0 н/о н/о +23.1 +10.8 46 +25 +25 комфорт 1016.3 977.9
01 19.08 штиль 0 н/о н/о +23.1 +11.1 47 +25 +25 комфорт 1016.1 977.8
02 19.08 С 1 н/о н/о +22.8 +9.5 43 +24 +24 комфорт 1016.1 977.7
03 19.08 С 1 н/о н/о +22.9 +8.5 40 +24 +24 комфорт 1015.9 977.5
04 19.08 С 1 н/о н/о +22.8 +8.4 40 +24 +24 комфорт 1016.1 977.7
05 19.08 штиль 0 н/о н/о +22.8 +8.4 40 +24 +24 комфорт 1016.3 977.9
06 19.08 ЮЗ 1 н/о н/о +24.5 +10.0 40 +25 +25 комфорт 1016.4 978.2 +22.4 1
07 19.08 ЮВ 3 н/о н/о +24.5 +9.2 38 +25 +25 комфорт 1016.6 978.4
08 19.08 ЮВ 3 н/о н/о +24.8 +11.0 42 +26 +26 жарко 1016.8 978.7
09 19.08 ЮВ 2 н/о н/о +25.8 +12.6 44 +28 +28 жарко 1016.9 978.9
10 19.08 ЮВ 3 н/о н/о +26.5 +12.8 43 +28 +28 жарко 1016.7 978.8
11 19.08 Ю 4 н/о н/о +26.9 +11.4 38 +28 +28 жарко 1016.8 978.9
12 19.08 ЮВ 5 н/о н/о +27.2 +14.2 45 +29 +29 жарко 1016.8 978.9
13 19.08 ЮВ 3 н/о н/о +26.0 +15.6 53 +29 +29 душно 1016.9 978.9
14 19.08 ЮВ 4 н/о н/о +25.7 +15.9 55 +29 +29 душно 1016.8 978.8
15 19.08 ЮВ 2 н/о н/о +25.2 +15.4 55 +28 +28 жарко 1016.8 978.7
16 19.08 ЮВ 2 н/о н/о +25.4 +14.8 52 +28 +28 жарко 1016.8 978.7
17 19.08 ЮВ 1 н/о н/о +24.5 +15.9 59 +28 +28 душно 1016.7 978.5
18 19.08 ЮЗ 2 н/о н/о +23.7 +16.4 64 +27 +27 жарко 1016.6 978.3 +27.7
19 19.08 З 1 н/о н/о +23.3 +16.3 65 +28 +28 душно 1016.9 978.6
20 19.08 З 2 н/о н/о +23.0 +15.7 63 +27 +27 душно 1017.1 978.7
21 19.08 СЗ 4 н/о н/о +22.8 +14.5 59 +26 +26 жарко 1017.0 978.6
22 19.08 СЗ 3 н/о н/о +23.6 +11.9 48 +25 +25 комфорт 1017.0 978.7
23 19.08 СЗ 1 н/о н/о +23.9 +11.5 46 +25 +25 комфорт 1016.8 978.5
00 20.08 З 1 н/о н/о +23.4 +11.1 46 +26 +26 жарко 1016.7 978.4
01 20.08 З 6 н/о н/о +22.5 +11.5 50 +25 +25 комфорт 1016.9 978.5
02 20.08 З 3 н/о н/о +22.9 +11.9 50 +25 +25 комфорт 1017.0 978.6
03 20.08 СЗ 2 н/о н/о +22.7 +12.0 51 +25 +25 комфорт 1017.0 978.6
04 20.08 СЗ 3 н/о н/о +22.5 +11.5 50 +25 +25 комфорт 1016.9 978.5
05 20.08 СЗ 2 н/о н/о +22.5 +10.6 47 +24 +24 комфорт 1017.3 978.8
06 20.08 С 1 н/о н/о +23.5 +11.2 46 +25 +25 комфорт 1017.4 979.1 +22.3 0
07 20.08 штиль 0 н/о н/о +25.2 +12.1 44 +27 +27 жарко 1017.4 979.3
08 20.08 В 1 н/о н/о +26.0 +9.8 36 +27 +27 жарко 1017.6 979.6
09 20.08 ЮВ 3 н/о н/о +27.2 +10.0 34 +28 +28 жарко 1017.8 979.9
10 20.08 ЮВ 4 н/о н/о +26.7 +10.4 36 +27 +27 жарко 1018.0 980.0
11 20.08 В 3 н/о н/о +27.4 +12.2 39 +29 +29 жарко 1017.8 979.9
12 20.08 ЮВ 4 н/о н/о +27.0 +15.9 51 +30 +30 душно 1017.7 979.8
13 20.08 ЮВ 4 н/о н/о +26.9 +17.3 56 +31 +31 душно 1017.7 979.7
14 20.08 ЮВ 4 н/о н/о +26.4 +16.0 53 +30 +30 душно 1017.4 979.4
15 20.08 Ю 2 н/о н/о +26.5 +13.9 46 +29 +29 жарко 1017.0 979.1
16 20.08 Ю 4 н/о н/о +26.4 +16.0 53 +30 +30 душно 1016.8 978.8
17 20.08 ЮВ 3 н/о н/о +25.6 +17.5 61 +30 +30 душно 1016.9 978.8
18 20.08 ЮВ 1 н/о н/о +24.1 +18.0 69 +28 +28 душно 1017.3 979.1 +27.8
19 20.08 В 1 н/о н/о +23.6 +18.0 71 +28 +28 душно 1017.6 979.3
20 20.08 ЮВ 1 н/о н/о +23.8 +17.5 68 +28 +28 душно 1017.8 979.5
21 20.08 штиль 0 н/о н/о +23.5 +17.2 68 +27 +27 душно 1017.5 979.2
22 20.08 З 1 н/о н/о +24.1 +14.4 55 +27 +27 жарко 1017.2 979.0
23 20.08 С 1 н/о н/о +24.3 +12.8 49 +26 +26 жарко 1017.0 978.8
00 21.08 З 4 н/о н/о +24.5 +12.1 46 +26 +26 жарко 1016.8 978.6
01 21.08 З 2 н/о н/о +24.1 +12.4 48 +26 +26 жарко 1016.7 978.4
02 21.08 З 2 н/о н/о +23.5 +12.4 50 +25 +25 комфорт 1016.7 978.4
03 21.08 З 3 н/о н/о +23.5 +12.1 49 +25 +25 комфорт 1016.7 978.4
04 21.08 З 5 н/о н/о +22.5 +11.8 51 +25 +25 комфорт 1017.2 978.7
06 21.08 СЗ 4 н/о н/о +23.4 +12.6 51 +26 +26 жарко 1017.9 979.5 +22.4 7
07 21.08 СЗ 3 н/о н/о +24.3 +14.9 56 +27 +27 жарко 1017.8 979.6
08 21.08 З 4 н/о н/о +25.6 +16.4 57 +29 +29 душно 1017.7 979.6
09 21.08 З 4 н/о н/о +27.1 +16.3 52 +31 +31 душно 1017.4 979.5
10 21.08 ЮЗ 3 н/о н/о +28.4 +16.6 49 +32 +32 душно 1017.1 979.4
11 21.08 ЮЗ 4 н/о н/о +29.4 +14.4 40 +31 +31 жарко 1016.5 978.9
12 21.08 Ю 2 н/о н/о +28.7 +17.2 50 +33 +33 очень
душно
1016.6 979.0

 

Местоположение метеостанции Катандзаро (Италия): широта 38.90 долгота 16.60 высота над уровнем моря 343 м.

В архиве по умолчанию представлена погода в Катандзаро за последнюю неделю. Архивные данные за месяц целиком и за предыдущие месяцы, начиная с января 2011 года, Вы можете получить, выбрав интересующий диапазон дат из раскрывающегося списка и нажав кнопку "Ввод!".


*Определитесь, кто Вы:
робот инопланетянин человек

Внимание! Время в таблицах - всемирное. Для получения местного времени необходимо прибавить поправку, которая равна 1 ч.

Смотрите также архив погоды в соседних городах и на ближайших метеорологических станциях:

Погода в Серральта-ди-сан-Вито (Италия) (22 км)
Погода в Ламеция-Терме (Италия) (30 км)
Погода на Монте Скеро (Италия) (51 км)
Погода в Пунто Алисе (Италия) (74 км)
Погода в Бонифати (Италия) (98 км)
Погода на Капо Стартивенто (Италия) (118 км)
Погода в Мессине (Италия) (120 км)
Погода в Латронико (Италия) (140 км)
Погода на Острове Салина (Италия) (154 км)
Погода на Капо Палинуро (Италия) (168 км)

Пояснения к столбцам:

Ветер - указаны скорость ветра в м/с - средняя за 10 мин, порывы в срок и между сроками (в фигурных скобках) и направление, откуда дует ветер: С - северный, СВ - северо-восточный, В - восточный, ЮВ - юго-восточный, Ю - южный, ЮЗ - юго-западный, З - западный, СЗ - северо-западный.
Видимость - горизонтальная дальность видимости в метрах или километрах. При видимости от 1 до 10 км при отсутствии осадков обычно наблюдается дымка, при ухудшении видимости до 1 км и менее - туман. В сухую погоду видимость может ухудшаться дымом, пылью или мглою.
Явления - указаны атмосферные явления, наблюдавшиеся в срок или в последний час перед сроком; фигурными скобками обозначены явления, наблюдавшиеся между сроками (за 1-3 часа до срока); квадратными скобками обозначены град или гололедные отложения с указанием их диаметра в мм.
Облачность - указаны через наклонную черту общая и нижняя облачность в баллах и высота нижней границы облаков в метрах; квадратными скобками обозначены формы облаков: Ci - перистые, Cs - перисто-слоистые, Cc - перисто-кучевые, Ac - высококучевые, As - высокослоистые, Sc - слоисто-кучевые, Ns - слоисто-дождевые, Cu - кучевые, Cb - кучево-дождевые. Подробнее классификацию облаков см. в Атласе облаков (PDF).
T - Температура воздуха - температура, измеренная на высоте 2 м над землей.
Td - Температура точки росы - температура, при понижении до которой содержащийся в воздухе водяной пар достигнет насыщения.
f - Относительная влажность воздуха - влажноcть воздуха, измеренная на высоте 2 м над землей.
Te - Эффективная температура - температура, которую ощущает одетый по сезону человек в тени. Характеристика душности погоды. При расчете учитывается влияние влажности воздуха и скорости ветра на теплоощущения человека.
Tes - Эффективная температура на солнце - температура, которую ощущает человек, с поправкой на солнечный нагрев. Характеристика знойности погоды. Зависит от высоты солнца над горизонтом, облачности и скорости ветра. Ночью, в пасмурную погоду, а также при ветре 12 м/с и более поправка равна нулю.
P - Атмосферное давление - приведенное к уровню моря атмосферное давление.
Po - Атмосферное давление - измеренное на уровне метеостанции атмосферное давление.
Tmin - Минимальная температура - минимум температуры воздуха на высоте 2 м над землей.
Tmax - Максимальная температура - максимум температуры воздуха на высоте 2 м над землей.
R - Количество осадков - Количество выпавших осадков за период времени, мм. При наведении курсора мыши на число - период времени, за который выпало указанное количество осадков.
R24 - Количество осадков - Количество выпавших осадков за 24 часа, мм.
S - Снежный покров - Высота снежного покрова, см. При наведении курсора мыши на число - состояние снежного покрова и степень покрытия местности в баллах.